Location: Ellerstadt
(49.4644°N, 8.2615°E)
Time: 05:37:03
(UTC+00:00)

Altair - Pass Details

Date: 13 June 2021
Orbit: 1502 x 1682 km, 47.2° (Epoch: 03 August)

Event Time Altitude Azimuth Distance (km) Brightness Sun altitude
Rises 20:23:31 0° 289° (WNW) 4,865 11.3 -6.6°
Reaches altitude 10° 20:26:50 10° 282° (WNW) 3,897 10.5 -7.0°
Maximum altitude 20:35:57 42° 217° (SW) 2,247 8.3 -7.9°
Drops below altitude 10° 20:45:11 10° 151° (SSE) 3,937 9.0 -8.9°
Enters shadow 20:45:17 10° 151° (SSE) 3,963 9.0 -8.9°
